Home > Time Zones > World Clock > Weather > Chad > Sarh > Past weeks

Flag for Chad Weather past 2 weeks in Sarh, Chad

Now
84 °F

Sunny.


Feels Like: 87 °F
Forecast: 82 / 102 °F
Wind: 5 mph from West

Location: Sarh Airport

Current Time: May 6, 2015 at 10:29:15 AM

Latest Report: May 6, 2015 at 9:00 AM


Visibility: 10 mi

Pressure: 29.92 "Hg

Humidity: 58%

Dew point: 68 °F

Location of SarhLocation

Historic Weather in Sarh — Graph

°F

Sarh temperature yesterday

Maximum temperature yesterday: 100 °F (at 12:00 PM)
Minimum temperature yesterday: 81 °F (at 5:00 AM)
Average temperature yesterday: 89 °F

Past Weeks' High & Low Weather Summary

 TemperatureHumidityPressure
High106 °F (Apr 21, 2:00 PM)78% (Apr 26, 10:00 AM)30.07 "Hg (Apr 26, 10:00 AM)
Low73 °F (Apr 26, 10:00 AM)11% (Apr 21, 2:00 PM)29.68 "Hg (Apr 30, 5:00 PM)
Average91 °F42%29.83 "Hg
* Reported Apr 21 9:00 AM — May 6 9:00 AM, Sarh, Weather by CustomWeather, © 2015

Note: Actual official high and low records may vary slightly from our data, if they occured in-between our weather recording intervals... More about our weather records

Advertising

Sarh weather history for previous 24 hours

 ConditionsComfort  
Time TempWeatherWind HumidityBarometerVisibility
9:00 AM
Wed, May 6
84 °FSunny.5 mph58%29.92 "Hg10 mi
8:00 AM82 °FSunny.6 mph66%29.89 "Hg10 mi
7:00 AM79 °FSunny.5 mph70%29.83 "Hg10 mi
6:00 AM79 °FSunny.5 mph70%29.83 "Hg10 mi
5:00 AM81 °FClear.7 mph66%29.83 "Hg10 mi
4:00 AM81 °FPassing clouds.12 mph66%29.83 "HgN/A
3:00 AM81 °FThunderstorms. Passing clouds.9 mph66%29.86 "HgN/A
1:00 AM82 °FThunderstorms. Passing clouds.No wind51%29.89 "HgN/A
12:00 AM82 °FThunderstorms. Passing clouds.5 mph48%29.89 "HgN/A
11:00 PM
Tue, May 5
84 °FThunderstorms. Passing clouds.5 mph55%29.89 "HgN/A
9:00 PM84 °FThunderstorms. Passing clouds.No wind62%29.83 "HgN/A
8:00 PM88 °FThunderstorms. Passing clouds.No wind52%29.83 "HgN/A
5:00 PM93 °FPassing clouds.12 mph39%29.74 "HgN/A
4:00 PM99 °FPassing clouds.7 mph31%29.74 "HgN/A
2:00 PM100 °FPassing clouds.7 mph31%29.77 "HgN/A
12:00 PM100 °FPassing clouds.12 mph33%29.86 "HgN/A
11:00 AM95 °FPassing clouds.14 mph39%29.89 "HgN/A
10:00 AM93 °FPassing clouds.14 mph44%29.89 "HgN/A
Weather by CustomWeather, © 2015

See weather overviewHow to use our weather pages